Location: *
(2.7500°S, 66.6833°W)
Time: 04:03:17
(UTC+00:00)

Cosmos 1782 - Pass Details

Date: 24 May 2024
Orbit: 510 x 517 km, 82.5° (Epoch: 23 June)

Event Time Altitude Azimuth Distance (km) Brightness Sun altitude
Rises 23:39:52 0° 189° (S) 2,619 6.2 -18.7°
Reaches altitude 10° 23:42:00 10° 193° (SSW) 1,730 5.3 -19.2°
Maximum altitude 23:45:45 62° 273° (W) 576 3.1 -20.1°
Drops below altitude 10° 23:49:29 10° 355° (N) 1,721 5.7 -21.0°
Sets 23:51:37 0° 358° (N) 2,604 6.6 -21.5°
